Location: Chena
(64.8152°N, 147.9227°W)
Time: 07:12:22
(UTC+00:00)

N. Korean satellite - Pass Details

Date: 25 January 2021
Orbit: 451 x 502 km, 97.2° (Epoch: 08 March)

Event Time Altitude Azimuth Distance (km) Brightness Sun altitude
Rises 17:10:42 0° 16° (NNE) 2,548 10.2 -10.1°
Reaches altitude 10° 17:12:59 10° 4° (N) 1,655 9.1 -9.9°
Maximum altitude 17:16:00 27° 306° (NW) 949 7.5 -9.6°
Drops below altitude 10° 17:18:58 10° 247° (WSW) 1,622 8.8 -9.3°
Sets 17:21:11 0° 235° (SW) 2,487 9.9 -9.1°
